Punta Gorda, FL

12:24 AM EST on December 10, 2019 (GMT -0500)
Charlotte County

Weather History for KPGD - September, 2019

Change the Weather History Date:

Monday, September 16, 2019

  Actual Average Record
Temperature  
Mean Temperature 84 °F -  
Max Temperature 93 °F 87 °F 95 °F (2016)
Min Temperature 75 °F 71 °F 68 °F (2001)
Cooling Degree Days 19    
Growing Degree Days 34 (Base 50)    
Moisture  
Dew Point 76 °F    
Average Humidity 80    
Maximum Humidity 100    
Minimum Humidity 54    
Precipitation  
Precipitation 0.01 in - - ()
Sea Level Pressure  
Sea Level Pressure 29.97 in    
Wind  
Wind Speed 5 mph (NW)    
Max Wind Speed 15 mph    
Max Gust Speed -    
Visibility 10 miles    
Events Rain    
Averages and records for this station are not official NWS values.
T = Trace of Precipitation, MM = Missing Value Source: NWS Daily Summary

Daily Weather History Graph

Daily Weather History Graph

Search for Another Location

Airport or City:

Astronomy

Sep. 16, 2019 Rise Set
Actual Time 7:13 AM EDT 7:31 PM EDT
Civil Twilight 6:50 AM EDT 7:54 PM EDT
Nautical Twilight 6:23 AM EDT 8:21 PM EDT
Astronomical Twilight 5:55 AM EDT 8:49 PM EDT
Moon 9:16 PM EDT (9/16) 9:11 AM EDT (9/16)
Length of Visible Light 13h 04m
Length of Day
12h 17m
Waning Gibbous, 94% of the Moon is Illuminated
Sep 16
Waning Gibbous
Sep 21
Last Quarter
Sep 28
New
Oct 5
First Quarter
Oct 13
Full

Hourly Weather History & Observations

Time (EDT) Temp. Heat Index Dew Point Humidity Pressure Visibility Wind Dir Wind Speed Gust Speed Precip Events Conditions
12:53 AM 78.1 °F - 77.0 °F 96% 29.96 in 10.0 mi Calm Calm - N/A   Clear
1:53 AM 77.0 °F - 77.0 °F 100% 29.96 in 10.0 mi NW 3.5 mph - N/A   Clear
2:53 AM 77.0 °F - 77.0 °F 100% 29.96 in 10.0 mi NNW 3.5 mph - N/A   Clear
3:53 AM 77.0 °F - 75.9 °F 96% 29.95 in 10.0 mi Calm Calm - N/A   Clear
4:53 AM 77.0 °F - 77.0 °F 100% 29.96 in 10.0 mi NW 3.5 mph - N/A   Clear
5:53 AM 75.9 °F - 75.9 °F 100% 29.96 in 10.0 mi NW 4.6 mph - N/A   Clear
6:53 AM 75.9 °F - 75.9 °F 100% 29.99 in 10.0 mi NNW 4.6 mph - N/A   Clear
7:53 AM 77.0 °F - 77.0 °F 100% 30.01 in 10.0 mi North 5.8 mph - N/A   Clear
8:53 AM 80.1 °F 85.8 °F 77.0 °F 90% 30.02 in 10.0 mi NNW 5.8 mph - N/A   Clear
9:53 AM 82.9 °F 91.8 °F 77.0 °F 82% 30.02 in 10.0 mi NNW 4.6 mph - N/A   Clear
10:53 AM 86.0 °F 93.8 °F 73.9 °F 67% 30.01 in 10.0 mi NNW 8.1 mph - N/A   Partly Cloudy
11:53 AM 89.1 °F 98.0 °F 73.9 °F 61% 30.01 in 10.0 mi North 10.4 mph - N/A   Partly Cloudy
12:53 PM 89.1 °F 98.0 °F 73.9 °F 61% 30.00 in 10.0 mi North 8.1 mph - N/A   Scattered Clouds
1:53 PM 90.0 °F 97.9 °F 73.0 °F 57% 29.99 in 10.0 mi NNW 9.2 mph - N/A   Clear
2:53 PM 93.0 °F 103.2 °F 73.9 °F 54% 29.96 in 10.0 mi NNW 6.9 mph - N/A   Clear
3:53 PM 91.0 °F 101.6 °F 75.0 °F 59% 29.94 in 10.0 mi WNW 13.8 mph - N/A   Mostly Cloudy
4:53 PM 91.0 °F 101.6 °F 75.0 °F 59% 29.93 in 10.0 mi WNW 13.8 mph - N/A   Scattered Clouds
5:53 PM 87.1 °F 96.3 °F 75.0 °F 67% 29.93 in 7.0 mi West 15.0 mph - 0.01 in Rain Light Rain
6:53 PM 87.1 °F 96.3 °F 75.0 °F 67% 29.93 in 10.0 mi WNW 10.4 mph - 0.00 in   Partly Cloudy
7:53 PM 84.0 °F 90.2 °F 73.0 °F 69% 29.94 in 10.0 mi WNW 10.4 mph - N/A   Clear
8:53 PM 82.9 °F 90.8 °F 75.9 °F 79% 29.96 in 10.0 mi NW 6.9 mph - N/A   Clear
9:53 PM 81.0 °F 87.3 °F 75.9 °F 85% 29.96 in 10.0 mi NW 6.9 mph - N/A   Clear
10:53 PM 81.0 °F 87.9 °F 77.0 °F 88% 29.97 in 10.0 mi NW 8.1 mph - N/A   Clear
11:53 PM 80.1 °F 85.8 °F 77.0 °F 90% 29.96 in 10.0 mi North 4.6 mph - N/A   Clear